DateTimeUTC,F1_A11,F1_S11,BsB_S11,BsG_S11,BsR_S11,BbsB_S11,BbsG_S11,BbsR_S11,BaB_A11,BaG_A11,BaR_A11,Tu_S11,T_S11,Uu_S11,U_S11,P_S11,T1_A11
2021-07-28T20:00:00Z,00000200,20000000,,,,,,,-000.21,-000.37,0000.07,20.4,26.7,15.9,10.9,0686.6,31.2
2021-07-28T20:01:00Z,00000200,20000000,,,,,,,-000.08,0000.26,-000.05,20.4,26.7,15.9,10.9,0686.6,31.2
2021-07-28T20:02:00Z,00000200,20000000,,,,,,,0000.04,-000.70,-000.30,20.4,26.7,15.9,10.9,0686.6,31.2
2021-07-28T20:03:00Z,00000200,60000000,,,,,,,0000.42,0000.56,0000.57,20.4,26.7,15.9,10.9,0686.6,31.2
2021-07-28T20:04:00Z,00000200,40000000,0006.22,0004.54,0002.92,0000.71,0000.33,0000.63,0000.50,0000.66,0000.31,20.4,26.6,15.8,10.9,0687.6,31.2
2021-07-28T20:05:00Z,00000200,00000000,0006.73,0004.55,0002.66,0000.67,0000.26,0000.23,0000.45,0000.94,0000.61,20.5,26.5,15.9,11.0,0687.6,31.2
2021-07-28T20:06:00Z,00000200,00000000,0006.61,0004.64,0002.59,0001.19,0000.54,0000.47,0000.99,0000.46,0000.52,20.5,26.5,15.9,11.1,0687.7,31.2
2021-07-28T20:07:00Z,00000200,00000000,0006.81,0004.95,0002.54,0001.53,0000.52,0000.64,0000.46,0000.49,0000.47,20.5,26.5,16.0,11.1,0687.6,31.2
2021-07-28T20:08:00Z,00000200,00000000,0007.00,0005.28,0002.92,0000.50,0000.87,0000.41,0000.97,0001.11,0001.12,20.5,26.5,15.9,11.1,0687.6,31.2
2021-07-28T20:09:00Z,00000200,00000000,0007.60,0005.21,0002.82,0000.28,0000.58,0000.30,0001.21,0000.48,0000.36,20.5,26.5,16.0,11.1,0687.6,31.2
2021-07-28T20:10:00Z,00000200,00000000,0007.33,0004.94,0002.62,0000.60,0000.85,0000.57,0000.64,0000.74,0000.81,20.5,26.5,16.1,11.2,0687.7,31.2
2021-07-28T20:11:00Z,00000200,00000000,0008.28,0005.58,0003.04,0001.37,0000.79,0000.59,0000.62,0000.67,0000.35,20.5,26.5,15.8,11.0,0687.7,31.2
2021-07-28T20:12:00Z,00000200,00000000,0007.01,0005.27,0003.07,0000.82,0000.61,0000.56,0000.52,0000.06,0000.42,20.5,26.5,15.8,11.0,0687.7,31.2
2021-07-28T20:13:00Z,00000200,00000000,0007.51,0005.28,0003.04,0000.99,0000.90,0000.35,0000.59,0001.19,0000.38,20.5,26.5,15.6,10.9,0687.6,31.2
2021-07-28T20:14:00Z,00000200,00000000,0007.95,0006.33,0004.03,0000.92,0000.80,0000.56,-000.28,-000.32,0000.09,20.5,26.5,15.4,10.7,0687.5,31.2
2021-07-28T20:15:00Z,00000200,00000000,0009.39,0006.90,0003.90,0001.24,0000.74,0000.70,0001.89,0001.71,0001.19,20.5,26.5,15.1,10.5,0687.6,31.2
2021-07-28T20:16:00Z,00000200,00000000,0009.33,0006.02,0003.76,0001.52,0000.85,0000.77,0000.55,0000.64,0000.55,20.5,26.5,15.4,10.7,0687.6,31.2
2021-07-28T20:17:00Z,00000200,00000000,0008.63,0006.61,0004.39,0001.00,0000.91,0000.63,0000.29,0000.13,0000.27,20.5,26.5,15.1,10.5,0687.5,31.2
2021-07-28T20:18:00Z,00000200,00000000,0008.63,0006.11,0003.90,0001.02,0000.84,0000.56,0001.76,0001.42,0001.21,20.5,26.5,15.0,10.4,0687.6,31.2
2021-07-28T20:19:00Z,00000200,00000000,0008.52,0005.74,0002.97,0001.02,0000.97,0000.57,0001.57,0001.94,0001.17,20.5,26.5,15.3,10.7,0687.7,31.2
2021-07-28T20:20:00Z,00000200,00000000,0007.43,0004.84,0002.82,0001.43,0000.81,0000.30,0001.22,0001.26,0001.18,20.5,26.5,15.7,10.9,0687.7,31.2
2021-07-28T20:21:00Z,00000200,00000000,0007.06,0005.22,0003.20,0000.94,0000.53,0000.57,0000.75,0000.43,0000.30,20.5,26.5,15.6,10.9,0687.7,31.2
2021-07-28T20:22:00Z,00000200,00000000,0007.23,0005.26,0003.46,0000.86,0000.78,0000.76,0000.18,-000.24,0000.08,20.5,26.5,15.5,10.8,0687.6,31.2
2021-07-28T20:23:00Z,00000200,00000000,0007.01,0005.94,0003.36,0001.38,0000.88,0000.83,0001.07,0001.41,0000.94,20.5,26.5,15.2,10.6,0687.6,31.2
2021-07-28T20:24:00Z,00000200,00000000,0008.35,0006.44,0003.74,0000.96,0000.87,0000.51,0000.46,0000.34,0000.52,20.5,26.5,15.3,10.7,0687.6,31.2
2021-07-28T20:25:00Z,00000200,00000000,0008.14,0006.41,0004.00,0000.76,0000.66,0000.84,0000.83,0001.03,0000.97,20.5,26.4,15.3,10.6,0687.5,31.2
2021-07-28T20:26:00Z,00000200,00000000,0008.61,0006.63,0004.11,0000.75,0000.81,0000.49,0001.08,0000.69,0000.27,20.5,26.5,15.2,10.6,0687.5,31.2
2021-07-28T20:27:00Z,00000200,00000000,0009.98,0006.96,0004.21,0000.62,0000.95,0000.73,0000.69,0000.81,0000.87,20.5,26.4,15.0,10.4,0687.5,31.2
2021-07-28T20:28:00Z,00000200,00000000,0009.45,0007.11,0004.19,0001.59,0000.86,0000.52,0001.74,0001.54,0001.15,20.4,26.4,15.1,10.5,0687.5,31.2
2021-07-28T20:29:00Z,00000200,00000000,0010.46,0007.51,0004.55,0001.14,0001.06,0000.35,0001.42,0001.06,0000.71,20.4,26.4,15.2,10.6,0687.5,31.2
2021-07-28T20:30:00Z,00000200,00000000,0009.92,0006.94,0004.15,0001.01,0000.93,0000.77,0000.96,0001.34,0001.28,20.4,26.4,15.4,10.7,0687.5,31.2
2021-07-28T20:31:00Z,00000200,00000000,0009.68,0006.59,0003.85,0001.26,0001.06,0000.53,0001.42,0001.25,0001.16,20.4,26.4,15.5,10.8,0687.6,31.2
2021-07-28T20:32:00Z,00000200,00000000,0008.51,0006.45,0004.13,0001.03,0000.50,0000.63,0001.27,0000.94,0000.75,20.4,26.4,15.6,10.9,0687.6,31.2
2021-07-28T20:33:00Z,00000200,00000000,0009.29,0006.52,0004.14,0001.41,0000.87,0000.85,0000.49,0000.63,0000.35,20.4,26.4,15.5,10.8,0687.5,31.2
2021-07-28T20:34:00Z,00000200,00000000,0008.85,0007.22,0004.19,0000.20,0001.12,0001.09,0000.18,0000.20,0000.22,20.4,26.4,15.1,10.5,0687.4,31.2
2021-07-28T20:35:00Z,00000200,00000000,0009.74,0007.90,0004.65,0001.29,0000.97,0000.66,0001.50,0001.19,0000.89,20.4,26.4,14.7,10.2,0687.4,31.2
2021-07-28T20:36:00Z,00000200,00000000,0010.08,0007.77,0004.49,0001.68,0000.79,0000.69,0001.07,0001.08,0001.02,20.4,26.4,14.7,10.3,0687.5,31.2
2021-07-28T20:37:00Z,00000200,00000000,0010.99,0007.95,0004.66,0001.48,0001.37,0000.83,0000.93,0001.13,0000.45,20.5,26.4,14.5,10.2,0687.4,31.2
2021-07-28T20:38:00Z,00000200,00000000,0011.39,0007.33,0004.67,0001.43,0001.13,0000.67,0001.14,0001.02,0000.89,20.4,26.4,14.6,10.2,0687.5,31.2
2021-07-28T20:39:00Z,00000200,00000000,0010.56,0007.42,0004.81,0001.18,0001.21,0001.15,0001.64,0001.28,0001.36,20.4,26.4,14.7,10.3,0687.5,31.2
2021-07-28T20:40:00Z,00000200,00000000,0010.26,0007.63,0004.30,0001.40,0000.84,0000.37,0001.54,0001.19,0001.07,20.4,26.4,14.9,10.4,0687.5,31.2
2021-07-28T20:41:00Z,00000200,00000000,0009.21,0007.70,0004.62,0001.86,0000.78,0000.77,0001.29,0001.25,0000.91,20.4,26.4,14.9,10.4,0687.5,31.2
2021-07-28T20:42:00Z,00000200,00000000,0009.76,0006.80,0004.39,0000.73,0000.95,0000.71,0001.83,0001.96,0001.28,20.4,26.4,15.1,10.5,0687.5,31.2
2021-07-28T20:43:00Z,00000200,00000000,0009.25,0006.35,0003.74,0001.29,0000.90,0000.81,0001.65,0001.13,0001.08,20.4,26.4,15.4,10.7,0687.5,31.2
2021-07-28T20:44:00Z,00000200,00000000,0008.77,0006.70,0003.82,0001.24,0001.19,0000.53,0000.38,0000.81,0000.53,20.4,26.4,15.3,10.7,0687.5,31.2
2021-07-28T20:45:00Z,00000200,00000000,0010.16,0007.10,0004.15,0001.38,0000.97,0000.68,0000.73,0000.64,0000.87,20.4,26.4,15.0,10.5,0687.4,31.2
2021-07-28T20:46:00Z,00000200,00000000,0009.92,0007.23,0004.66,0001.62,0001.18,0000.51,0000.83,0000.75,0000.40,20.5,26.4,15.0,10.5,0687.4,31.2
2021-07-28T20:47:00Z,00000200,00000000,0009.69,0007.75,0004.72,0001.78,0000.80,0000.58,0001.36,0001.00,0000.98,20.4,26.4,14.9,10.4,0687.5,31.2
2021-07-28T20:48:00Z,00000200,00000000,0009.40,0008.07,0004.62,0001.64,0001.03,0000.47,0000.79,0000.94,0000.54,20.4,26.4,14.7,10.3,0687.4,31.2
2021-07-28T20:49:00Z,00000200,00000000,0009.95,0007.06,0004.98,0001.87,0001.05,0000.75,0001.81,0001.29,0001.05,20.4,26.4,14.7,10.3,0687.5,31.2
2021-07-28T20:50:00Z,00000200,00000000,0010.70,0007.36,0004.42,0001.11,0000.74,0000.64,0000.73,0001.06,0000.57,20.4,26.4,14.8,10.3,0687.4,31.2
2021-07-28T20:51:00Z,00000200,00000000,0009.80,0007.35,0004.75,0001.56,0001.30,0000.65,0001.36,0001.25,0001.18,20.4,26.4,14.6,10.2,0687.4,31.2
2021-07-28T20:52:00Z,00000200,00000000,0010.01,0007.58,0004.60,0001.20,0000.92,0000.61,0001.47,0001.02,0001.20,20.4,26.4,14.7,10.2,0687.5,31.2
2021-07-28T20:53:00Z,00000200,00000000,0010.32,0007.44,0004.59,0000.99,0000.81,0001.05,0000.80,0000.83,0000.80,20.4,26.4,14.8,10.3,0687.5,31.2
2021-07-28T20:54:00Z,00000200,00000000,0010.69,0008.10,0004.92,0000.87,0000.74,0000.28,0000.57,0000.75,0000.08,20.4,26.4,14.4,10.1,0687.4,31.2
2021-07-28T20:55:00Z,00000200,00000000,0010.28,0007.64,0004.65,0001.36,0001.03,0001.19,0001.56,0001.23,0001.04,20.4,26.4,14.3,10.0,0687.4,31.2
2021-07-28T20:56:00Z,00000200,00000000,0010.78,0008.09,0004.82,0001.58,0000.89,0000.88,0001.02,0001.40,0000.78,20.4,26.4,14.4,10.0,0687.4,31.2
2021-07-28T20:57:00Z,00000200,40000000,,,,,,,0001.10,0000.57,0001.19,20.4,26.4,14.5,10.1,0687.4,31.2
2021-07-28T20:58:00Z,00000200,60000000,,,,,,,-000.34,-000.64,-000.91,20.2,26.5,14.7,10.0,0686.5,31.2
2021-07-28T20:59:00Z,00000200,20000000,,,,,,,-000.32,-000.01,0000.18,20.2,26.6,14.7,10.0,0686.5,31.2
